Location: Conflandey
(47.7287°N, 6.0456°E)
Time: 22:03:01
(UTC+00:00)

Cosmos 220 Rocket - Pass Details

Date: 24 October 2021
Orbit: 575 x 615 km, 74.0° (Epoch: 04 December)

Event Time Altitude Azimuth Distance (km) Brightness Sun altitude
Rises 18:31:22 0° 206° (SSW) 2,869 7.8 -20.8°
Reaches altitude 10° 18:33:36 10° 208° (SSW) 1,966 6.9 -21.2°
Maximum altitude 18:38:00 73° 293° (WNW) 644 4.2 -22.0°
Enters shadow 18:41:08 19° 16° (NNE) 1,476 5.9 -22.5°
